Location: Haram ta Haram Freeway
(35.0583°N, 51.4202°E)
Time: 17:46:07
(UTC+03:30)

IRIDIUM 33 DEB - Pass Details

Date: 03 December 2021
Orbit: 663 x 816 km, 86.4° (Epoch: 18 January)

Event Time Altitude Azimuth Distance (km) Brightness Sun altitude
Rises 19:22:39 0° 197° (SSW) 3,341 ? -30.1°
Reaches altitude 10° 19:25:09 10° 204° (SSW) 2,411 ? -30.6°
Maximum altitude 19:30:19 44° 275° (W) 1,114 ? -31.7°
Enters shadow 19:32:55 26° 331° (NNW) 1,546 ? -32.2°
